Meteosat 12

operational
NORAD ID: 54743 Int'l Des: 2022-170 Owner: EUMET Country: I-EUM
HEOCIRCULARGSO

About Meteosat 12

Description loading...

Live Position

Loading 3D Globe...

Upcoming Passes

Altitude History

Altitude vs Time

uPlot chart will show altitude changes over time

Two-Line Element Set

1 54743U 22170C 26062.08722659 -.00000022 00000-0 00000+0 0 9994
2 54743 0.7443 28.9468 0001909 281.6757 241.3450 1.00274625 11913
Epoch: Mar 3, 2026 • Age: 30 hours

Current Status

Altitude 35781.0 km
Velocity 3.08 km/s
Sub-Earth Point -0.50°S, 0.28°W
Launch Date Dec 13, 2022
Age 3.2 years
Type weather

Technical Details

Classification Payload
Mass 3760.00 kg
Dry Mass 2500.00 kg
Total Mass 3760.00 kg
Length 5.20 m
Diameter 2.30 m
Span 10.00 m
Shape Box + 2 pan
Manufacturer THALES
Bus Type MTG
Phase Status In Orbit
Owner/State EUMET/I-EUM

Large Constellations

Loading constellations...